Weather Roundup
Issued by NWS Corpus Christi, TX

Home | Current Version | Previous Version | Text Only | Print | Product List | Glossary On
Versions: 1 2 3 4 5 6 7 8 9 10 11 12 13 14 15 16 17 18 19 20 21 22 23 24 25 26 27 28 29 30 31 32 33 34 35 36 37 38 39 40 41 42 43 44 45 46 47 48 49 50
000
ASUS44 KCRP 222110
HRRCRP

SOUTH TEXAS REGIONAL WEATHER ROUNDUP
NATIONAL WEATHER SERVICE CORPUS CHRISTI TX
400 PM CDT WED OCT 22 2014


TXZ229>244-222200-
...CORPUS CHRISTI AREA OBSERVATIONS...

CITY           SKY/WX    TMP DP  RH WIND       PRES   REMARKS
CORPUS CHRISTI MOSUNNY   83  65  54 E16       30.00F
NAS CORPUS CHR MOSUNNY   82  68  62 E15       29.99F
ROCKPORT       SUNNY     82  66  58 E14       30.00F
KINGSVILLE NAS MOSUNNY   85  66  53 E14       29.98F
ALICE          MOSUNNY   86  61  42 E14       29.98F
FALFURRIAS     MOSUNNY   85  61  44 E13       29.98S
$$

...VICTORIA AREA OBSERVATIONS...

CITY           SKY/WX    TMP DP  RH WIND       PRES   REMARKS
VICTORIA       MOSUNNY   87  58  37 E9        30.01F
BEEVILLE       FAIR      87  58  36 E12       30.00F
PLEASANTON     PTSUNNY   86  55  34 NE9       30.01F
SAN ANTONIO    PTSUNNY   83  52  34 E8        30.03F
$$

...LAREDO AREA OBSERVATIONS...

CITY           SKY/WX    TMP DP  RH WIND       PRES   REMARKS
LAREDO         PTSUNNY   86  62  44 SE6       30.00F
COTULLA        PTSUNNY   87  56  34 SE7       29.99F
DEL RIO        LGT RAIN  69  64  84 SW3       30.06S
MCALLEN        CLOUDY    83  69  62 E10       29.96F
HEBBRONVILLE   MOSUNNY   85  59  41 E10       30.00S
$$

...OTHER TEXAS OBSERVATIONS...

CITY           SKY/WX    TMP DP  RH WIND       PRES   REMARKS
BROWNSVILLE    PTSUNNY   83  68  60 NE12      29.96F
HOUSTON        MOSUNNY   80  58  46 E10       30.04F
COL. STATION   LGT RAIN  81  57  43 NE9       30.05F
AUSTIN         MOSUNNY   82  59  45 E10       30.04F
WACO           MOSUNNY   81  58  45 E9        30.06F
FORT WORTH     PTSUNNY   79  57  46 S7        30.07F
WICHITA FALLS  CLOUDY    75  58  55 S13       30.08F
LUBBOCK        CLOUDY    65  59  81 SE15      30.10R
EL PASO        MOSUNNY   74  53  48 CALM      30.08F
$$

...MARINE OBSERVATIONS...

STATION/POSITION TIME  SKY/WX   TEMP    WIND        PRES    VSBY  WAVE   SWELL
                                AIR SEA DIR/SP/G                  HT/PER HT/PER
                 (UTC)          (F)     (DEG/KT/KT) (MB)    (MI)  (FT/S) (FT/S)
PORT ARANSAS     2100            78 78   50/ 15/ 16 1016.7F
BUOY 90 E PORT A 2100            77 81   50/ 14/ 19 1016.1F         5/ 6   3/ 7
BUOY 45 SE BAFFI 2100            79 81   70/ 16/ 19 1014.4F         6/ 7
BUOY 200 E PT IS 2100            80 81   60/ 17/ 21 1013.1F         6/ 7
BUOY 15 E GALVES 2100            74 78   80/ 12/ 16 1016.8F         3/ 5   2/ 6
$$



USA.gov is the U.S. government's official web portal to all federal, state and local government web resources and services.